Time,TemperatureF,DewpointF,PressureIn,WindDirection,WindDirectionDegrees,WindSpeedMPH,WindSpeedGustMPH,Humidity,HourlyPrecipIn,Conditions,Clouds,dailyrainin,SoftwareType,DateUTC
2013-01-16 00:01:00,32.7,16.1,23.77,NNE,22,8.7,9.6,50,0.00,,---,0.00,VWS V14.01,2013-01-16 08:01:00,
2013-01-16 00:06:00,32.5,15.5,23.80,North,0,8.7,10.1,49,0.00,,---,0.00,VWS V14.01,2013-01-16 08:06:00,
2013-01-16 00:11:00,33.1,15.5,23.80,North,0,6.5,12.3,48,0.00,,---,0.00,VWS V14.01,2013-01-16 08:11:00,
2013-01-16 00:16:00,33.3,15.7,23.80,NNE,22,7.8,8.5,48,0.00,,---,0.00,VWS V14.01,2013-01-16 08:16:00,
2013-01-16 00:21:00,33.1,15.5,23.77,NE,45,3.4,5.8,48,0.00,,---,0.00,VWS V14.01,2013-01-16 08:21:00,
2013-01-16 00:26:00,33.1,15.1,23.77,NNE,22,5.6,10.3,47,0.00,,---,0.00,VWS V14.01,2013-01-16 08:26:00,
2013-01-16 00:31:00,32.9,14.9,23.77,NNE,22,3.1,4.0,47,0.00,,---,0.00,VWS V14.01,2013-01-16 08:31:00,
2013-01-16 00:36:00,32.2,14.2,23.77,ESE,112,2.0,2.0,47,0.00,,---,0.00,VWS V14.01,2013-01-16 08:36:00,
2013-01-16 00:41:00,31.5,13.6,23.77,North,0,2.0,4.0,47,0.00,,---,0.00,VWS V14.01,2013-01-16 08:41:00,
2013-01-16 00:46:00,31.3,13.9,23.77,NNE,22,2.7,2.7,48,0.00,,---,0.00,VWS V14.01,2013-01-16 08:46:00,
2013-01-16 00:51:00,31.3,14.4,23.77,ENE,68,2.5,2.5,49,0.00,,---,0.00,VWS V14.01,2013-01-16 08:51:00,
2013-01-16 00:56:00,30.7,13.9,23.77,NNE,22,1.6,1.6,49,0.00,,---,0.00,VWS V14.01,2013-01-16 08:56:00,
2013-01-16 01:01:00,30.2,13.4,23.77,NNE,22,2.0,3.4,49,0.00,,---,0.00,VWS V14.01,2013-01-16 09:01:00,
2013-01-16 01:06:00,29.3,12.5,23.77,NNW,338,2.9,3.4,49,0.00,,---,0.00,VWS V14.01,2013-01-16 09:06:00,
2013-01-16 01:11:00,28.9,13.1,23.77,North,0,4.7,7.6,51,0.00,,---,0.00,VWS V14.01,2013-01-16 09:11:00,
2013-01-16 01:16:00,30.2,14.7,23.77,NNE,22,5.4,8.1,52,0.00,,---,0.00,VWS V14.01,2013-01-16 09:16:00,
2013-01-16 01:21:00,30.6,14.6,23.77,North,0,0.0,1.1,51,0.00,,---,0.00,VWS V14.01,2013-01-16 09:21:00,
2013-01-16 01:26:00,29.7,13.8,23.77,NNE,22,0.0,1.1,51,0.00,,---,0.00,VWS V14.01,2013-01-16 09:26:00,
2013-01-16 01:31:00,28.8,12.9,23.77,NNE,22,1.1,1.1,51,0.00,,---,0.00,VWS V14.01,2013-01-16 09:31:00,
2013-01-16 01:36:00,28.0,12.3,23.77,South,180,1.3,2.5,51,0.00,,---,0.00,VWS V14.01,2013-01-16 09:36:00,
2013-01-16 01:41:00,27.1,11.4,23.77,SSE,158,2.5,3.8,51,0.00,,---,0.00,VWS V14.01,2013-01-16 09:41:00,
2013-01-16 01:46:00,27.0,11.7,23.77,ENE,68,1.6,1.6,52,0.00,,---,0.00,VWS V14.01,2013-01-16 09:46:00,
2013-01-16 01:51:00,26.6,11.8,23.77,WNW,292,0.0,0.0,53,0.00,,---,0.00,VWS V14.01,2013-01-16 09:51:00,
2013-01-16 01:56:00,25.9,10.7,23.77,SSW,202,0.0,0.9,52,0.00,,---,0.00,VWS V14.01,2013-01-16 09:56:00,
2013-01-16 02:01:00,25.2,10.4,23.77,NNE,22,2.5,2.5,53,0.00,,---,0.00,VWS V14.01,2013-01-16 10:01:00,
2013-01-16 02:06:00,24.4,9.8,23.77,ESE,112,1.1,2.2,53,0.00,,---,0.00,VWS V14.01,2013-01-16 10:06:00,
2013-01-16 02:11:00,24.1,9.9,23.77,East,90,0.0,1.3,54,0.00,,---,0.00,VWS V14.01,2013-01-16 10:11:00,
2013-01-16 02:16:00,23.5,9.8,23.77,ENE,68,2.2,2.5,55,0.00,,---,0.00,VWS V14.01,2013-01-16 10:16:00,
2013-01-16 02:21:00,23.4,9.6,23.77,ESE,112,0.0,0.0,55,0.00,,---,0.00,VWS V14.01,2013-01-16 10:21:00,
2013-01-16 02:26:00,22.6,9.7,23.77,ENE,68,1.3,1.6,57,0.00,,---,0.00,VWS V14.01,2013-01-16 10:26:00,
2013-01-16 02:31:00,22.5,9.5,23.77,NNE,22,2.7,2.7,57,0.00,,---,0.00,VWS V14.01,2013-01-16 10:31:00,
2013-01-16 02:36:00,22.5,9.9,23.77,ENE,68,2.7,2.7,58,0.00,,---,0.00,VWS V14.01,2013-01-16 10:36:00,
2013-01-16 02:41:00,22.5,10.3,23.77,ENE,68,0.0,0.0,59,0.00,,---,0.00,VWS V14.01,2013-01-16 10:41:00,
2013-01-16 02:46:00,22.5,11.1,23.77,NE,45,3.4,3.6,61,0.00,,---,0.00,VWS V14.01,2013-01-16 10:46:00,
2013-01-16 02:52:00,22.5,10.7,23.77,NNE,22,2.9,2.9,60,0.00,,---,0.00,VWS V14.01,2013-01-16 10:52:00,
2013-01-16 02:57:00,22.3,10.5,23.77,NNE,22,2.7,2.9,60,0.00,,---,0.00,VWS V14.01,2013-01-16 10:57:00,
2013-01-16 03:02:00,22.5,10.7,23.77,NNE,22,2.2,2.7,60,0.00,,---,0.00,VWS V14.01,2013-01-16 11:02:00,
2013-01-16 03:07:00,22.8,11.8,23.77,ENE,68,2.2,2.9,62,0.00,,---,0.00,VWS V14.01,2013-01-16 11:07:00,
2013-01-16 03:12:00,22.8,11.4,23.77,NE,45,2.2,2.9,61,0.00,,---,0.00,VWS V14.01,2013-01-16 11:12:00,
2013-01-16 03:17:00,23.4,12.6,23.77,SSE,158,2.7,3.6,63,0.00,,---,0.00,VWS V14.01,2013-01-16 11:17:00,
2013-01-16 03:22:00,23.5,12.1,23.77,West,270,2.2,2.5,61,0.00,,---,0.00,VWS V14.01,2013-01-16 11:22:00,
2013-01-16 03:27:00,22.8,11.0,23.77,NNE,22,2.5,2.7,60,0.00,,---,0.00,VWS V14.01,2013-01-16 11:27:00,
2013-01-16 03:32:00,22.8,11.4,23.77,NE,45,2.2,3.1,61,0.00,,---,0.00,VWS V14.01,2013-01-16 11:32:00,
2013-01-16 03:37:00,22.5,10.7,23.77,NE,45,2.5,2.7,60,0.00,,---,0.00,VWS V14.01,2013-01-16 11:37:00,
2013-01-16 03:42:00,22.1,10.4,23.77,NE,45,1.1,1.1,60,0.00,,---,0.00,VWS V14.01,2013-01-16 11:42:00,
2013-01-16 03:47:00,22.1,10.4,23.77,NNE,22,1.3,2.7,60,0.00,,---,0.00,VWS V14.01,2013-01-16 11:47:00,
2013-01-16 03:52:00,22.1,10.7,23.77,SE,135,2.2,2.2,61,0.00,,---,0.00,VWS V14.01,2013-01-16 11:52:00,
2013-01-16 03:57:00,22.1,10.7,23.77,ENE,68,2.5,2.5,61,0.00,,---,0.00,VWS V14.01,2013-01-16 11:57:00,
2013-01-16 04:02:00,22.1,11.1,23.77,NW,315,0.9,1.1,62,0.00,,---,0.00,VWS V14.01,2013-01-16 12:02:00,
2013-01-16 04:07:00,21.9,10.9,23.77,East,90,2.7,3.4,62,0.00,,---,0.00,VWS V14.01,2013-01-16 12:07:00,
2013-01-16 04:12:00,22.3,11.2,23.77,NNE,22,1.6,2.0,62,0.00,,---,0.00,VWS V14.01,2013-01-16 12:12:00,
2013-01-16 04:17:00,22.1,11.1,23.77,NNE,22,2.0,2.7,62,0.00,,---,0.00,VWS V14.01,2013-01-16 12:17:00,
2013-01-16 04:22:00,22.1,11.1,23.77,SE,135,2.5,2.7,62,0.00,,---,0.00,VWS V14.01,2013-01-16 12:22:00,
2013-01-16 04:27:00,22.3,11.2,23.77,SE,135,1.3,1.6,62,0.00,,---,0.00,VWS V14.01,2013-01-16 12:27:00,
2013-01-16 04:32:00,22.8,12.8,23.77,NNE,22,1.1,1.3,65,0.00,,---,0.00,VWS V14.01,2013-01-16 12:32:00,
2013-01-16 04:37:00,23.0,12.3,23.74,NW,315,0.0,0.9,63,0.00,,---,0.00,VWS V14.01,2013-01-16 12:37:00,
2013-01-16 04:42:00,22.8,11.8,23.74,North,0,2.0,2.2,62,0.00,,---,0.00,VWS V14.01,2013-01-16 12:42:00,
2013-01-16 04:47:00,22.8,11.8,23.74,SSW,202,2.0,2.2,62,0.00,,---,0.00,VWS V14.01,2013-01-16 12:47:00,
2013-01-16 04:52:00,22.6,11.2,23.74,NE,45,1.1,2.7,61,0.00,,---,0.00,VWS V14.01,2013-01-16 12:52:00,
2013-01-16 04:57:00,22.5,11.1,23.74,NNW,338,2.0,2.9,61,0.00,,---,0.00,VWS V14.01,2013-01-16 12:57:00,
2013-01-16 05:02:00,22.6,11.6,23.74,SW,225,1.6,2.9,62,0.00,,---,0.00,VWS V14.01,2013-01-16 13:02:00,
2013-01-16 05:07:00,22.8,11.8,23.74,NE,45,1.6,1.6,62,0.00,,---,0.00,VWS V14.01,2013-01-16 13:07:00,
2013-01-16 05:13:00,22.8,11.8,23.74,NNE,22,2.0,2.2,62,0.00,,---,0.00,VWS V14.01,2013-01-16 13:13:00,
2013-01-16 05:19:00,22.6,11.2,23.74,SSW,202,2.2,2.9,61,0.00,,---,0.00,VWS V14.01,2013-01-16 13:19:00,
2013-01-16 05:24:00,22.3,10.9,23.74,WSW,248,2.5,2.5,61,0.00,,---,0.00,VWS V14.01,2013-01-16 13:24:00,
2013-01-16 05:29:00,21.6,9.8,23.74,NNE,22,2.5,2.5,60,0.00,,---,0.00,VWS V14.01,2013-01-16 13:29:00,
2013-01-16 05:34:00,21.4,10.0,23.77,North,0,1.1,1.6,61,0.00,,---,0.00,VWS V14.01,2013-01-16 13:34:00,
2013-01-16 05:39:00,21.2,9.9,23.77,NNE,22,1.6,2.0,61,0.00,,---,0.00,VWS V14.01,2013-01-16 13:39:00,
2013-01-16 05:44:00,21.0,9.7,23.77,NNE,22,1.1,2.0,61,0.00,,---,0.00,VWS V14.01,2013-01-16 13:44:00,
2013-01-16 05:49:00,21.2,10.2,23.77,NNE,22,0.0,0.0,62,0.00,,---,0.00,VWS V14.01,2013-01-16 13:49:00,
2013-01-16 05:54:00,20.8,9.9,23.77,NNE,22,3.4,3.4,62,0.00,,---,0.00,VWS V14.01,2013-01-16 13:54:00,
2013-01-16 05:59:00,20.7,9.7,23.77,NNE,22,2.2,2.9,62,0.00,,---,0.00,VWS V14.01,2013-01-16 13:59:00,
2013-01-16 06:04:00,20.7,10.1,23.77,WNW,292,1.6,2.0,63,0.00,,---,0.00,VWS V14.01,2013-01-16 14:04:00,
2013-01-16 06:09:00,20.5,9.9,23.77,East,90,2.0,2.0,63,0.00,,---,0.00,VWS V14.01,2013-01-16 14:09:00,
2013-01-16 06:14:00,20.3,9.7,23.77,North,0,2.2,2.2,63,0.00,,---,0.00,VWS V14.01,2013-01-16 14:14:00,
2013-01-16 06:19:00,20.5,10.2,23.77,WSW,248,0.0,0.0,64,0.00,,---,0.00,VWS V14.01,2013-01-16 14:19:00,
2013-01-16 06:24:00,20.3,9.7,23.77,WSW,248,0.0,0.0,63,0.00,,---,0.00,VWS V14.01,2013-01-16 14:24:00,
2013-01-16 06:29:00,20.1,9.6,23.77,WSW,248,0.0,0.0,63,0.00,,---,0.00,VWS V14.01,2013-01-16 14:29:00,
2013-01-16 06:34:00,20.1,9.6,23.77,WSW,248,0.0,0.0,63,0.00,,---,0.00,VWS V14.01,2013-01-16 14:34:00,
2013-01-16 06:39:00,20.1,9.6,23.77,SSW,202,2.5,2.5,63,0.00,,---,0.00,VWS V14.01,2013-01-16 14:39:00,
2013-01-16 06:44:00,20.1,9.9,23.77,SSW,202,2.5,2.5,64,0.00,,---,0.00,VWS V14.01,2013-01-16 14:44:00,
2013-01-16 06:49:00,19.9,9.4,23.77,SSE,158,0.0,0.0,63,0.00,,---,0.00,VWS V14.01,2013-01-16 14:49:00,
2013-01-16 06:54:00,19.9,10.1,23.77,NNE,22,2.2,2.5,65,0.00,,---,0.00,VWS V14.01,2013-01-16 14:54:00,
2013-01-16 06:59:00,20.1,10.3,23.77,NE,45,0.0,0.0,65,0.00,,---,0.00,VWS V14.01,2013-01-16 14:59:00,
2013-01-16 07:04:00,19.8,9.9,23.77,NNE,22,2.7,2.7,65,0.00,,---,0.00,VWS V14.01,2013-01-16 15:04:00,
2013-01-16 07:09:00,19.9,10.1,23.77,ENE,68,0.0,0.0,65,0.00,,---,0.00,VWS V14.01,2013-01-16 15:09:00,
2013-01-16 07:14:00,20.1,10.3,23.77,SW,225,0.9,1.1,65,0.00,,---,0.00,VWS V14.01,2013-01-16 15:14:00,
2013-01-16 07:19:00,19.9,9.7,23.77,SE,135,0.0,0.0,64,0.00,,---,0.00,VWS V14.01,2013-01-16 15:19:00,
2013-01-16 07:24:00,19.9,10.1,23.77,SE,135,1.3,1.3,65,0.00,,---,0.00,VWS V14.01,2013-01-16 15:24:00,
2013-01-16 07:29:00,20.1,10.3,23.77,NE,45,0.0,1.3,65,0.00,,---,0.00,VWS V14.01,2013-01-16 15:29:00,
2013-01-16 07:34:00,20.3,10.8,23.77,NE,45,3.4,3.4,66,0.00,,---,0.00,VWS V14.01,2013-01-16 15:34:00,
2013-01-16 07:39:00,20.7,11.4,23.77,NNE,22,2.5,2.7,67,0.00,,---,0.00,VWS V14.01,2013-01-16 15:39:00,
2013-01-16 07:44:00,21.2,12.0,23.77,ENE,68,2.5,3.8,67,0.00,,---,0.00,VWS V14.01,2013-01-16 15:44:00,
2013-01-16 07:49:00,22.1,12.8,23.77,ENE,68,1.6,2.9,67,0.00,,---,0.00,VWS V14.01,2013-01-16 15:49:00,
2013-01-16 07:54:00,23.5,13.9,23.77,ENE,68,2.0,3.1,66,0.00,,---,0.00,VWS V14.01,2013-01-16 15:54:00,
2013-01-16 07:59:00,25.3,15.6,23.77,ENE,68,1.3,2.5,66,0.00,,---,0.00,VWS V14.01,2013-01-16 15:59:00,
2013-01-16 08:04:00,26.6,16.1,23.77,ENE,68,1.1,2.0,64,0.00,,---,0.00,VWS V14.01,2013-01-16 16:04:00,
2013-01-16 08:09:00,27.9,15.4,23.77,ENE,68,4.0,4.0,59,0.00,,---,0.00,VWS V14.01,2013-01-16 16:09:00,
2013-01-16 08:14:00,30.6,15.9,23.77,NNE,22,4.3,4.3,54,0.00,,---,0.00,VWS V14.01,2013-01-16 16:14:00,
2013-01-16 08:19:00,32.7,17.0,23.77,NE,45,0.9,1.1,52,0.00,,---,0.00,VWS V14.01,2013-01-16 16:19:00,
2013-01-16 08:24:00,34.3,18.1,23.77,NE,45,2.0,3.6,51,0.00,,---,0.00,VWS V14.01,2013-01-16 16:24:00,
2013-01-16 08:29:00,35.8,16.0,23.77,NNE,22,4.5,4.5,44,0.00,,---,0.00,VWS V14.01,2013-01-16 16:29:00,
2013-01-16 08:34:00,37.0,17.2,23.77,NNE,22,4.7,7.8,44,0.00,,---,0.00,VWS V14.01,2013-01-16 16:34:00,
2013-01-16 08:39:00,37.9,16.9,23.77,NNE,22,3.6,3.6,42,0.00,,---,0.00,VWS V14.01,2013-01-16 16:39:00,
2013-01-16 08:44:00,38.3,16.7,23.77,NE,45,2.7,7.2,41,0.00,,---,0.00,VWS V14.01,2013-01-16 16:44:00,
2013-01-16 08:49:00,38.5,15.7,23.77,NNE,22,5.4,7.6,39,0.00,,---,0.00,VWS V14.01,2013-01-16 16:49:00,
2013-01-16 08:54:00,39.0,16.2,23.77,NW,315,4.3,8.5,39,0.00,,---,0.00,VWS V14.01,2013-01-16 16:54:00,
2013-01-16 08:59:00,39.4,16.5,23.77,NNW,338,7.8,7.8,39,0.00,,---,0.00,VWS V14.01,2013-01-16 16:59:00,
2013-01-16 09:04:00,39.2,16.3,23.77,NW,315,2.9,3.8,39,0.00,,---,0.00,VWS V14.01,2013-01-16 17:04:00,
2013-01-16 09:09:00,39.9,16.4,23.77,NW,315,4.0,7.8,38,0.00,,---,0.00,VWS V14.01,2013-01-16 17:09:00,
2013-01-16 09:14:00,40.1,16.5,23.77,NNE,22,4.9,6.5,38,0.00,,---,0.00,VWS V14.01,2013-01-16 17:14:00,
2013-01-16 09:19:00,39.9,15.1,23.77,ENE,68,4.3,6.5,36,0.00,,---,0.00,VWS V14.01,2013-01-16 17:19:00,
2013-01-16 09:24:00,39.9,15.1,23.77,NNE,22,5.4,6.3,36,0.00,,---,0.00,VWS V14.01,2013-01-16 17:24:00,
2013-01-16 09:29:00,40.3,16.1,23.77,NE,45,5.6,5.8,37,0.00,,---,0.00,VWS V14.01,2013-01-16 17:29:00,
2013-01-16 09:34:00,40.6,16.4,23.77,NNE,22,2.9,4.9,37,0.00,,---,0.00,VWS V14.01,2013-01-16 17:34:00,
2013-01-16 09:39:00,40.6,15.8,23.77,NNW,338,5.6,5.6,36,0.00,,---,0.00,VWS V14.01,2013-01-16 17:39:00,
2013-01-16 09:44:00,40.8,16.6,23.77,ENE,68,3.8,4.3,37,0.00,,---,0.00,VWS V14.01,2013-01-16 17:44:00,
2013-01-16 09:49:00,40.6,15.8,23.77,NNE,22,4.0,5.6,36,0.00,,---,0.00,VWS V14.01,2013-01-16 17:49:00,
2013-01-16 09:54:00,40.8,15.9,23.77,NNE,22,4.0,6.5,36,0.00,,---,0.00,VWS V14.01,2013-01-16 17:54:00,
2013-01-16 09:59:00,40.8,15.3,23.77,NNW,338,3.6,4.7,35,0.00,,---,0.00,VWS V14.01,2013-01-16 17:59:00,
2013-01-16 10:04:00,40.5,15.0,23.80,ENE,68,3.6,3.8,35,0.00,,---,0.00,VWS V14.01,2013-01-16 18:04:00,
2013-01-16 10:09:00,40.3,14.8,23.80,NE,45,4.7,6.0,35,0.00,,---,0.00,VWS V14.01,2013-01-16 18:09:00,
2013-01-16 10:14:00,43.9,26.9,23.80,East,90,3.6,5.8,51,0.00,,---,0.00,VWS V14.01,2013-01-16 18:14:00,
2013-01-16 10:19:00,42.8,17.7,23.80,NNE,22,4.3,5.4,36,0.00,,---,0.00,VWS V14.01,2013-01-16 18:19:00,
2013-01-16 10:24:00,42.3,16.6,23.80,North,0,2.5,4.9,35,0.00,,---,0.00,VWS V14.01,2013-01-16 18:24:00,
2013-01-16 10:29:00,42.4,16.7,23.80,North,0,1.3,2.9,35,0.00,,---,0.00,VWS V14.01,2013-01-16 18:29:00,
2013-01-16 10:34:00,43.3,17.5,23.80,NE,45,4.0,4.0,35,0.00,,---,0.00,VWS V14.01,2013-01-16 18:34:00,
2013-01-16 10:39:00,42.8,15.7,23.80,NW,315,3.6,4.9,33,0.00,,---,0.00,VWS V14.01,2013-01-16 18:39:00,
2013-01-16 10:44:00,43.3,16.9,23.80,NNE,22,3.8,5.8,34,0.00,,---,0.00,VWS V14.01,2013-01-16 18:44:00,
2013-01-16 10:49:00,43.3,16.2,23.80,NNW,338,2.7,3.1,33,0.00,,---,0.00,VWS V14.01,2013-01-16 18:49:00,
2013-01-16 10:54:00,43.9,16.7,23.80,NNE,22,1.3,1.6,33,0.00,,---,0.00,VWS V14.01,2013-01-16 18:54:00,
2013-01-16 10:59:00,44.8,17.5,23.80,SE,135,2.0,2.5,33,0.00,,---,0.00,VWS V14.01,2013-01-16 18:59:00,
2013-01-16 11:04:00,45.9,18.4,23.80,East,90,1.3,2.7,33,0.00,,---,0.00,VWS V14.01,2013-01-16 19:04:00,
2013-01-16 11:09:00,45.9,17.7,23.80,North,0,3.8,3.8,32,0.00,,---,0.00,VWS V14.01,2013-01-16 19:09:00,
2013-01-16 11:14:00,46.2,18.0,23.80,North,0,4.0,4.0,32,0.00,,---,0.00,VWS V14.01,2013-01-16 19:14:00,
2013-01-16 11:19:00,46.6,17.6,23.77,NNE,22,4.7,4.7,31,0.00,,---,0.00,VWS V14.01,2013-01-16 19:19:00,
2013-01-16 11:24:00,46.6,17.6,23.77,NE,45,2.2,2.9,31,0.00,,---,0.00,VWS V14.01,2013-01-16 19:24:00,
2013-01-16 11:29:00,46.6,17.6,23.77,North,0,3.6,4.0,31,0.00,,---,0.00,VWS V14.01,2013-01-16 19:29:00,
2013-01-16 11:34:00,46.6,17.6,23.77,NNE,22,4.0,5.4,31,0.00,,---,0.00,VWS V14.01,2013-01-16 19:34:00,
2013-01-16 11:39:00,46.6,17.6,23.77,NNE,22,4.7,5.6,31,0.00,,---,0.00,VWS V14.01,2013-01-16 19:39:00,
2013-01-16 11:44:00,46.0,17.1,23.77,NNE,22,8.5,8.7,31,0.00,,---,0.00,VWS V14.01,2013-01-16 19:44:00,
2013-01-16 11:49:00,46.0,16.4,23.74,NNE,22,4.9,5.4,30,0.00,,---,0.00,VWS V14.01,2013-01-16 19:49:00,
2013-01-16 11:54:00,46.0,16.4,23.74,NNE,22,4.9,4.9,30,0.00,,---,0.00,VWS V14.01,2013-01-16 19:54:00,
2013-01-16 11:59:00,46.2,16.5,23.74,North,0,2.9,6.0,30,0.00,,---,0.00,VWS V14.01,2013-01-16 19:59:00,
2013-01-16 12:04:00,46.6,16.8,23.74,NNE,22,3.8,9.8,30,0.00,,---,0.00,VWS V14.01,2013-01-16 20:04:00,
2013-01-16 12:09:00,46.0,16.4,23.74,North,0,7.4,10.3,30,0.00,,---,0.00,VWS V14.01,2013-01-16 20:09:00,
2013-01-16 12:14:00,45.7,16.0,23.74,ENE,68,5.4,5.4,30,0.00,,---,0.00,VWS V14.01,2013-01-16 20:14:00,
2013-01-16 12:19:00,44.8,15.3,23.74,NNE,22,8.7,8.7,30,0.00,,---,0.00,VWS V14.01,2013-01-16 20:19:00,
2013-01-16 12:24:00,45.1,15.6,23.74,ENE,68,6.0,8.7,30,0.00,,---,0.00,VWS V14.01,2013-01-16 20:24:00,
2013-01-16 12:29:00,45.0,15.4,23.74,NE,45,4.0,4.0,30,0.00,,---,0.00,VWS V14.01,2013-01-16 20:29:00,
2013-01-16 12:34:00,44.6,15.1,23.74,NE,45,4.9,6.0,30,0.00,,---,0.00,VWS V14.01,2013-01-16 20:34:00,
2013-01-16 12:39:00,44.8,15.3,23.74,ENE,68,5.4,7.2,30,0.00,,---,0.00,VWS V14.01,2013-01-16 20:39:00,
2013-01-16 12:44:00,44.6,15.1,23.74,NW,315,5.4,5.4,30,0.00,,---,0.00,VWS V14.01,2013-01-16 20:44:00,
2013-01-16 12:49:00,44.6,15.1,23.74,SSE,158,2.9,4.3,30,0.00,,---,0.00,VWS V14.01,2013-01-16 20:49:00,
2013-01-16 12:54:00,44.8,15.3,23.74,NNW,338,3.4,5.6,30,0.00,,---,0.00,VWS V14.01,2013-01-16 20:54:00,
2013-01-16 12:59:00,44.8,15.3,23.74,NW,315,1.6,5.6,30,0.00,,---,0.00,VWS V14.01,2013-01-16 20:59:00,
2013-01-16 13:04:00,44.8,15.3,23.74,SE,135,4.9,4.9,30,0.00,,---,0.00,VWS V14.01,2013-01-16 21:04:00,
2013-01-16 13:09:00,44.4,14.9,23.74,NE,45,5.4,5.4,30,0.00,,---,0.00,VWS V14.01,2013-01-16 21:09:00,
2013-01-16 13:15:00,44.6,15.1,23.74,ENE,68,2.9,3.8,30,0.00,,---,0.00,VWS V14.01,2013-01-16 21:15:00,
2013-01-16 13:20:00,44.4,14.9,23.74,East,90,3.6,3.8,30,0.00,,---,0.00,VWS V14.01,2013-01-16 21:20:00,
2013-01-16 13:25:00,44.4,14.9,23.74,NNE,22,3.6,6.5,30,0.00,,---,0.00,VWS V14.01,2013-01-16 21:25:00,
2013-01-16 13:30:00,44.6,15.1,23.74,North,0,4.0,4.9,30,0.00,,---,0.00,VWS V14.01,2013-01-16 21:30:00,
2013-01-16 13:35:00,44.4,15.7,23.71,NNE,22,2.5,4.0,31,0.00,,---,0.00,VWS V14.01,2013-01-16 21:35:00,
2013-01-16 13:41:00,44.1,15.4,23.71,North,0,3.6,4.9,31,0.00,,---,0.00,VWS V14.01,2013-01-16 21:41:00,
2013-01-16 13:47:00,44.1,15.4,23.71,NNE,22,5.6,5.6,31,0.00,,---,0.00,VWS V14.01,2013-01-16 21:47:00,
2013-01-16 13:52:00,43.5,14.9,23.74,North,0,2.9,4.3,31,0.00,,---,0.00,VWS V14.01,2013-01-16 21:52:00,
2013-01-16 13:57:00,43.3,14.8,23.74,NNW,338,4.9,6.5,31,0.00,,---,0.00,VWS V14.01,2013-01-16 21:57:00,
2013-01-16 14:03:00,42.8,14.3,23.71,NNE,22,2.9,3.6,31,0.00,,---,0.00,VWS V14.01,2013-01-16 22:03:00,
2013-01-16 14:08:00,43.0,14.4,23.71,North,0,2.0,2.9,31,0.00,,---,0.00,VWS V14.01,2013-01-16 22:08:00,
2013-01-16 14:13:00,43.2,14.6,23.71,NE,45,3.1,3.6,31,0.00,,---,0.00,VWS V14.01,2013-01-16 22:13:00,
2013-01-16 14:18:00,43.3,14.8,23.74,NNE,22,3.8,3.8,31,0.00,,---,0.00,VWS V14.01,2013-01-16 22:18:00,
2013-01-16 14:24:00,43.5,14.2,23.74,NNW,338,5.6,5.6,30,0.00,,---,0.00,VWS V14.01,2013-01-16 22:24:00,
2013-01-16 14:29:00,43.7,14.3,23.74,NNW,338,5.4,5.4,30,0.00,,---,0.00,VWS V14.01,2013-01-16 22:29:00,
2013-01-16 14:34:00,43.5,14.2,23.71,NNW,338,3.6,3.6,30,0.00,,---,0.00,VWS V14.01,2013-01-16 22:34:00,
2013-01-16 14:39:00,43.3,14.0,23.71,NNE,22,3.8,5.4,30,0.00,,---,0.00,VWS V14.01,2013-01-16 22:39:00,
2013-01-16 14:45:00,43.2,13.8,23.71,NE,45,3.4,3.8,30,0.00,,---,0.00,VWS V14.01,2013-01-16 22:45:00,
2013-01-16 14:50:00,43.0,13.7,23.71,North,0,5.4,5.4,30,0.00,,---,0.00,VWS V14.01,2013-01-16 22:50:00,
2013-01-16 14:55:00,43.0,13.7,23.71,North,0,3.6,3.6,30,0.00,,---,0.00,VWS V14.01,2013-01-16 22:55:00,
2013-01-16 15:00:00,43.0,13.7,23.71,NE,45,2.9,4.3,30,0.00,,---,0.00,VWS V14.01,2013-01-16 23:00:00,
2013-01-16 15:05:00,43.0,13.7,23.71,NNW,338,3.1,3.4,30,0.00,,---,0.00,VWS V14.01,2013-01-16 23:05:00,
2013-01-16 15:10:00,43.2,13.8,23.71,NE,45,2.9,7.4,30,0.00,,---,0.00,VWS V14.01,2013-01-16 23:10:00,
2013-01-16 15:15:00,43.0,13.7,23.71,NNE,22,6.5,6.5,30,0.00,,---,0.00,VWS V14.01,2013-01-16 23:15:00,
2013-01-16 15:20:00,42.8,13.5,23.71,NE,45,2.7,5.8,30,0.00,,---,0.00,VWS V14.01,2013-01-16 23:20:00,
2013-01-16 15:25:00,42.6,13.4,23.71,NNE,22,2.9,4.0,30,0.00,,---,0.00,VWS V14.01,2013-01-16 23:25:00,
2013-01-16 15:30:00,42.4,14.0,23.71,North,0,3.8,5.6,31,0.00,,---,0.00,VWS V14.01,2013-01-16 23:30:00,
2013-01-16 15:35:00,42.4,14.0,23.74,NNW,338,0.0,0.9,31,0.00,,---,0.00,VWS V14.01,2013-01-16 23:35:00,
2013-01-16 15:40:00,42.3,13.8,23.74,SSE,158,0.9,0.9,31,0.00,,---,0.00,VWS V14.01,2013-01-16 23:40:00,
2013-01-16 15:45:00,42.1,13.6,23.74,NE,45,2.0,3.1,31,0.00,,---,0.00,VWS V14.01,2013-01-16 23:45:00,
2013-01-16 15:50:00,41.9,13.5,23.74,NNW,338,1.6,2.5,31,0.00,,---,0.00,VWS V14.01,2013-01-16 23:50:00,
2013-01-16 15:55:00,41.7,13.3,23.74,NNW,338,1.6,3.4,31,0.00,,---,0.00,VWS V14.01,2013-01-16 23:55:00,
2013-01-16 16:00:00,41.7,12.6,23.74,NNE,22,7.2,7.4,30,0.00,,---,0.00,VWS V14.01,2013-01-17 00:00:00,
2013-01-16 16:05:00,41.7,12.6,23.74,NE,45,2.7,4.0,30,0.00,,---,0.00,VWS V14.01,2013-01-17 00:05:00,
2013-01-16 16:10:00,41.5,12.4,23.74,North,0,3.8,5.8,30,0.00,,---,0.00,VWS V14.01,2013-01-17 00:10:00,
2013-01-16 16:15:00,41.4,12.3,23.74,NNE,22,9.8,10.7,30,0.00,,---,0.00,VWS V14.01,2013-01-17 00:15:00,
2013-01-16 16:20:00,41.2,12.1,23.74,NNE,22,3.4,4.0,30,0.00,,---,0.00,VWS V14.01,2013-01-17 00:20:00,
2013-01-16 16:25:00,41.0,12.0,23.74,NNE,22,5.4,5.4,30,0.00,,---,0.00,VWS V14.01,2013-01-17 00:25:00,
2013-01-16 16:30:00,40.8,11.8,23.74,NE,45,4.3,7.4,30,0.00,,---,0.00,VWS V14.01,2013-01-17 00:30:00,
2013-01-16 16:35:00,40.5,12.2,23.74,NE,45,3.1,4.9,31,0.00,,---,0.00,VWS V14.01,2013-01-17 00:35:00,
2013-01-16 16:41:00,40.1,11.9,23.74,NE,45,2.0,4.7,31,0.00,,---,0.00,VWS V14.01,2013-01-17 00:41:00,
2013-01-16 16:46:00,39.6,11.4,23.74,ENE,68,2.5,3.8,31,0.00,,---,0.00,VWS V14.01,2013-01-17 00:46:00,
2013-01-16 16:51:00,39.2,11.1,23.74,NE,45,3.6,5.6,31,0.00,,---,0.00,VWS V14.01,2013-01-17 00:51:00,
2013-01-16 16:56:00,39.2,10.4,23.74,NNE,22,3.6,4.3,30,0.00,,---,0.00,VWS V14.01,2013-01-17 00:56:00,
2013-01-16 17:02:00,38.8,10.8,23.74,NE,45,3.6,4.9,31,0.00,,---,0.00,VWS V14.01,2013-01-17 01:02:00,
2013-01-16 17:07:00,38.1,10.2,23.74,NE,45,3.4,3.4,31,0.00,,---,0.00,VWS V14.01,2013-01-17 01:07:00,
2013-01-16 17:12:00,38.1,10.2,23.74,NE,45,2.5,3.1,31,0.00,,---,0.00,VWS V14.01,2013-01-17 01:12:00,
2013-01-16 17:17:00,37.6,9.7,23.74,NNE,22,2.0,2.5,31,0.00,,---,0.00,VWS V14.01,2013-01-17 01:17:00,
2013-01-16 17:23:00,36.5,9.5,23.74,NE,45,1.1,2.2,32,0.00,,---,0.00,VWS V14.01,2013-01-17 01:23:00,
2013-01-16 17:28:00,36.7,12.3,23.74,NNE,22,1.1,1.1,36,0.00,,---,0.00,VWS V14.01,2013-01-17 01:28:00,
2013-01-16 17:33:00,35.4,11.1,23.74,NNE,22,1.3,2.7,36,0.00,,---,0.00,VWS V14.01,2013-01-17 01:33:00,
2013-01-16 17:38:00,34.2,9.4,23.74,NE,45,1.3,1.6,35,0.00,,---,0.00,VWS V14.01,2013-01-17 01:38:00,
2013-01-16 17:44:00,33.8,12.1,23.74,North,0,0.9,2.0,40,0.00,,---,0.00,VWS V14.01,2013-01-17 01:44:00,
2013-01-16 17:49:00,32.9,10.7,23.77,NNE,22,0.0,2.5,39,0.00,,---,0.00,VWS V14.01,2013-01-17 01:49:00,
2013-01-16 17:54:00,32.2,10.0,23.77,NNE,22,0.0,0.0,39,0.00,,---,0.00,VWS V14.01,2013-01-17 01:54:00,
2013-01-16 17:59:00,31.5,8.8,23.77,NNE,22,2.0,2.0,38,0.00,,---,0.00,VWS V14.01,2013-01-17 01:59:00,
2013-01-16 18:05:00,30.7,9.3,23.77,NNE,22,2.9,2.9,40,0.00,,---,0.00,VWS V14.01,2013-01-17 02:05:00,
2013-01-16 18:10:00,30.2,8.8,23.77,NE,45,0.0,1.3,40,0.00,,---,0.00,VWS V14.01,2013-01-17 02:10:00,
2013-01-16 18:15:00,29.7,8.3,23.77,NE,45,0.0,1.3,40,0.00,,---,0.00,VWS V14.01,2013-01-17 02:15:00,
2013-01-16 18:20:00,29.1,8.4,23.77,North,0,1.6,2.5,41,0.00,,---,0.00,VWS V14.01,2013-01-17 02:20:00,
2013-01-16 18:26:00,28.9,8.2,23.77,South,180,2.7,2.7,41,0.00,,---,0.00,VWS V14.01,2013-01-17 02:26:00,
2013-01-16 18:31:00,29.1,8.4,23.77,NNW,338,0.0,2.7,41,0.00,,---,0.00,VWS V14.01,2013-01-17 02:31:00,
2013-01-16 18:36:00,29.1,8.4,23.77,SSE,158,2.9,3.1,41,0.00,,---,0.00,VWS V14.01,2013-01-17 02:36:00,
2013-01-16 18:41:00,28.8,8.0,23.77,ENE,68,2.0,2.2,41,0.00,,---,0.00,VWS V14.01,2013-01-17 02:41:00,
2013-01-16 18:47:00,28.2,8.1,23.77,ENE,68,2.7,2.7,42,0.00,,---,0.00,VWS V14.01,2013-01-17 02:47:00,
2013-01-16 18:52:00,28.0,7.9,23.77,ENE,68,2.0,2.7,42,0.00,,---,0.00,VWS V14.01,2013-01-17 02:52:00,
2013-01-16 18:57:00,28.0,7.9,23.77,NE,45,2.7,2.9,42,0.00,,---,0.00,VWS V14.01,2013-01-17 02:57:00,
2013-01-16 19:02:00,28.2,8.1,23.77,NNW,338,3.1,3.1,42,0.00,,---,0.00,VWS V14.01,2013-01-17 03:02:00,
2013-01-16 19:08:00,28.8,8.0,23.77,ENE,68,2.5,6.5,41,0.00,,---,0.00,VWS V14.01,2013-01-17 03:08:00,
2013-01-16 19:14:00,29.7,8.9,23.77,NNE,22,0.0,1.3,41,0.00,,---,0.00,VWS V14.01,2013-01-17 03:14:00,
2013-01-16 19:19:00,29.3,8.5,23.77,NNE,22,0.0,0.0,41,0.00,,---,0.00,VWS V14.01,2013-01-17 03:19:00,
2013-01-16 19:24:00,28.8,8.0,23.77,North,0,3.1,3.1,41,0.00,,---,0.00,VWS V14.01,2013-01-17 03:24:00,
2013-01-16 19:29:00,28.4,7.7,23.77,NNW,338,2.5,2.9,41,0.00,,---,0.00,VWS V14.01,2013-01-17 03:29:00,
2013-01-16 19:34:00,28.2,7.6,23.77,NNE,22,3.6,3.6,41,0.00,,---,0.00,VWS V14.01,2013-01-17 03:34:00,
2013-01-16 19:39:00,28.4,7.7,23.77,NW,315,2.2,2.9,41,0.00,,---,0.00,VWS V14.01,2013-01-17 03:39:00,
2013-01-16 19:44:00,28.0,7.4,23.77,North,0,3.4,3.4,41,0.00,,---,0.00,VWS V14.01,2013-01-17 03:44:00,
2013-01-16 19:50:00,28.6,7.9,23.80,SSE,158,1.6,1.6,41,0.00,,---,0.00,VWS V14.01,2013-01-17 03:50:00,
2013-01-16 19:55:00,29.5,8.7,23.80,SSW,202,1.6,2.0,41,0.00,,---,0.00,VWS V14.01,2013-01-17 03:55:00,
2013-01-16 20:01:00,30.0,9.2,23.80,NNW,338,1.6,2.5,41,0.00,,---,0.00,VWS V14.01,2013-01-17 04:01:00,
2013-01-16 20:07:00,29.8,9.0,23.80,ENE,68,1.1,2.2,41,0.00,,---,0.00,VWS V14.01,2013-01-17 04:07:00,
2013-01-16 20:12:00,29.5,8.7,23.80,WSW,248,2.9,2.9,41,0.00,,---,0.00,VWS V14.01,2013-01-17 04:12:00,
2013-01-16 20:18:00,28.9,8.2,23.80,NE,45,2.5,2.5,41,0.00,,---,0.00,VWS V14.01,2013-01-17 04:18:00,
2013-01-16 20:23:00,28.6,7.9,23.80,SSE,158,2.5,2.5,41,0.00,,---,0.00,VWS V14.01,2013-01-17 04:23:00,
2013-01-16 20:28:00,29.8,9.0,23.80,ENE,68,2.0,2.9,41,0.00,,---,0.00,VWS V14.01,2013-01-17 04:28:00,
2013-01-16 20:33:00,29.8,9.0,23.77,South,180,2.9,3.6,41,0.00,,---,0.00,VWS V14.01,2013-01-17 04:33:00,
2013-01-16 20:38:00,30.2,9.4,23.77,NE,45,2.2,2.7,41,0.00,,---,0.00,VWS V14.01,2013-01-17 04:38:00,
2013-01-16 20:43:00,30.0,8.6,23.77,NE,45,2.5,2.5,40,0.00,,---,0.00,VWS V14.01,2013-01-17 04:43:00,
2013-01-16 20:48:00,29.5,8.1,23.77,NNE,22,2.2,2.5,40,0.00,,---,0.00,VWS V14.01,2013-01-17 04:48:00,
2013-01-16 20:54:00,28.6,7.3,23.77,NE,45,1.1,2.9,40,0.00,,---,0.00,VWS V14.01,2013-01-17 04:54:00,
2013-01-16 21:02:00,28.6,7.9,23.77,NE,45,2.9,2.9,41,0.00,,---,0.00,VWS V14.01,2013-01-17 05:02:00,
2013-01-16 21:03:00,28.6,7.9,23.77,NE,45,2.9,3.6,41,0.00,,---,0.00,VWS V14.01,2013-01-17 05:03:00,
2013-01-16 21:09:00,28.4,7.7,23.77,NNE,22,3.6,3.6,41,0.00,,---,0.00,VWS V14.01,2013-01-17 05:09:00,
2013-01-16 21:11:00,28.4,7.7,23.77,NE,45,2.7,2.7,41,0.00,,---,0.00,VWS V14.01,2013-01-17 05:11:00,
2013-01-16 21:16:00,28.4,7.7,23.77,NNE,22,2.9,3.4,41,0.00,,---,0.00,VWS V14.01,2013-01-17 05:16:00,
2013-01-16 21:17:00,28.4,7.7,23.77,NE,45,2.5,2.9,41,0.00,,---,0.00,VWS V14.01,2013-01-17 05:17:00,
2013-01-16 21:22:00,28.2,7.6,23.77,ENE,68,3.6,3.6,41,0.00,,---,0.00,VWS V14.01,2013-01-17 05:22:00,
2013-01-16 21:27:00,28.2,7.6,23.77,North,0,2.9,3.6,41,0.00,,---,0.00,VWS V14.01,2013-01-17 05:27:00,
2013-01-16 21:32:00,28.0,7.4,23.77,NNE,22,2.5,2.5,41,0.00,,---,0.00,VWS V14.01,2013-01-17 05:32:00,
2013-01-16 21:37:00,27.9,7.2,23.77,North,0,3.4,5.8,41,0.00,,---,0.00,VWS V14.01,2013-01-17 05:37:00,
2013-01-16 21:42:00,27.9,7.2,23.77,NE,45,3.1,5.6,41,0.00,,---,0.00,VWS V14.01,2013-01-17 05:42:00,
2013-01-16 21:47:00,28.2,8.1,23.77,NE,45,2.2,2.7,42,0.00,,---,0.00,VWS V14.01,2013-01-17 05:47:00,
2013-01-16 21:53:00,27.9,7.8,23.77,North,0,2.7,3.4,42,0.00,,---,0.00,VWS V14.01,2013-01-17 05:53:00,
2013-01-16 21:58:00,27.5,7.4,23.77,ENE,68,3.1,3.8,42,0.00,,---,0.00,VWS V14.01,2013-01-17 05:58:00,
2013-01-16 22:03:00,27.0,6.9,23.74,ENE,68,2.9,2.9,42,0.00,,---,0.00,VWS V14.01,2013-01-17 06:03:00,
2013-01-16 22:08:00,26.8,6.8,23.74,NNE,22,2.2,2.2,42,0.00,,---,0.00,VWS V14.01,2013-01-17 06:08:00,
2013-01-16 22:13:00,26.4,6.4,23.74,NE,45,2.5,2.7,42,0.00,,---,0.00,VWS V14.01,2013-01-17 06:13:00,
2013-01-16 22:18:00,26.8,6.8,23.74,NNE,22,1.6,2.0,42,0.00,,---,0.00,VWS V14.01,2013-01-17 06:18:00,
2013-01-16 22:23:00,26.6,6.6,23.74,NNW,338,2.0,2.5,42,0.00,,---,0.00,VWS V14.01,2013-01-17 06:23:00,
2013-01-16 22:28:00,26.1,6.1,23.74,WSW,248,0.0,0.0,42,0.00,,---,0.00,VWS V14.01,2013-01-17 06:28:00,
2013-01-16 22:33:00,26.1,6.1,23.74,NE,45,0.9,1.6,42,0.00,,---,0.00,VWS V14.01,2013-01-17 06:33:00,
2013-01-16 22:38:00,25.7,5.8,23.74,NE,45,1.6,2.7,42,0.00,,---,0.00,VWS V14.01,2013-01-17 06:38:00,
2013-01-16 22:43:00,25.5,5.6,23.74,NNE,22,2.7,2.9,42,0.00,,---,0.00,VWS V14.01,2013-01-17 06:43:00,
2013-01-16 22:48:00,25.2,5.3,23.74,NNE,22,2.7,2.9,42,0.00,,---,0.00,VWS V14.01,2013-01-17 06:48:00,
2013-01-16 22:53:00,25.0,5.1,23.74,NNE,22,2.9,3.1,42,0.00,,---,0.00,VWS V14.01,2013-01-17 06:53:00,
2013-01-16 22:58:00,25.0,5.1,23.74,NE,45,2.7,3.1,42,0.00,,---,0.00,VWS V14.01,2013-01-17 06:58:00,
2013-01-16 23:03:00,25.0,5.1,23.77,NE,45,1.6,2.9,42,0.00,,---,0.00,VWS V14.01,2013-01-17 07:03:00,
2013-01-16 23:08:00,25.2,5.3,23.77,NNE,22,2.5,2.5,42,0.00,,---,0.00,VWS V14.01,2013-01-17 07:08:00,
2013-01-16 23:13:00,25.3,5.5,23.77,NNE,22,2.5,2.5,42,0.00,,---,0.00,VWS V14.01,2013-01-17 07:13:00,
2013-01-16 23:18:00,25.5,5.6,23.74,NE,45,2.5,2.5,42,0.00,,---,0.00,VWS V14.01,2013-01-17 07:18:00,
2013-01-16 23:23:00,26.6,6.6,23.74,ENE,68,2.5,3.8,42,0.00,,---,0.00,VWS V14.01,2013-01-17 07:23:00,
2013-01-16 23:28:00,27.3,6.7,23.74,East,90,3.1,3.4,41,0.00,,---,0.00,VWS V14.01,2013-01-17 07:28:00,
2013-01-16 23:34:00,29.5,8.1,23.77,SE,135,3.4,3.8,40,0.00,,---,0.00,VWS V14.01,2013-01-17 07:34:00,
2013-01-16 23:39:00,30.9,8.3,23.77,East,90,1.6,3.6,38,0.00,,---,0.00,VWS V14.01,2013-01-17 07:39:00,
2013-01-16 23:45:00,31.1,7.9,23.77,NE,45,3.6,3.6,37,0.00,,---,0.00,VWS V14.01,2013-01-17 07:45:00,
2013-01-16 23:50:00,31.1,7.9,23.74,ENE,68,3.6,3.6,37,0.00,,---,0.00,VWS V14.01,2013-01-17 07:50:00,
2013-01-16 23:55:00,31.6,7.1,23.74,East,90,2.9,6.0,35,0.00,,---,0.00,VWS V14.01,2013-01-17 07:55:00,